Meridian, MS

6:27 PM CST on December 12, 2019 (GMT -0600)
Key

Weather History for KMEI - August, 2019

Change the Weather History Date:

Friday, August 30, 2019

  Actual Average Record
Temperature  
Mean Temperature 78 °F 79 °F  
Max Temperature 91 °F 91 °F 104 °F (2000)
Min Temperature 63 °F 68 °F 50 °F (1891)
Degree Days  
Heating Degree Days 0 0  
Month to date heating degree days 0 0  
Since 1 June heating degree days 0 0  
Since 1 July heating degree days 0 0  
Cooling Degree Days 12 14  
Month to date cooling degree days 554 461  
Year to date cooling degree days 2069 1608  
Since 1 June cooling degree days 1573 1325  
Growing Degree Days 28 (Base 50)    
Moisture  
Dew Point 63 °F    
Average Humidity 66    
Maximum Humidity 93    
Minimum Humidity 34    
Precipitation  
Precipitation 0.00 in 0.11 in 3.17 in (2012)
Month to date precipitation 4.37 3.88  
Year to date precipitation 42.95 38.85  
Sea Level Pressure  
Sea Level Pressure 30.05 in    
Wind  
Wind Speed 3 mph ()    
Max Wind Speed 9 mph    
Max Gust Speed 12 mph    
Visibility 10.0 miles    
Events      
T = Trace of Precipitation, MM = Missing Value Source: Averaged Metar Reports

Daily Weather History Graph

Daily Weather History Graph

Search for Another Location

Airport or City:

Astronomy

Aug. 30, 2019 Rise Set
Actual Time 6:28 AM CDT 7:22 PM CDT
Civil Twilight 6:03 AM CDT 7:47 PM CDT
Nautical Twilight 5:33 AM CDT 8:16 PM CDT
Astronomical Twilight 5:03 AM CDT 8:47 PM CDT
Moon 6:32 AM CDT (8/30) 7:58 PM CDT (8/30)
Length of Visible Light 13h 43m
Length of Day
12h 53m
New Moon, 0% of the Moon is Illuminated
Aug 30
New Moon
Sep 5
First Quarter
Sep 13
Full
Sep 21
Last Quarter
Sep 28
New

Hourly Weather History & Observations

Time (CDT) Temp. Heat Index Dew Point Humidity Pressure Visibility Wind Dir Wind Speed Gust Speed Precip Events Conditions
1:58 AM 66.9 °F - 63.0 °F 87% 30.04 in 10.0 mi NW 3.5 mph - N/A   Clear
2:58 AM 66.0 °F - 63.0 °F 90% 30.03 in 10.0 mi NW 3.5 mph - N/A   Clear
3:58 AM 64.9 °F - 62.1 °F 90% 30.04 in 10.0 mi Calm Calm - N/A   Clear
4:58 AM 64.9 °F - 61.0 °F 87% 30.04 in 10.0 mi North 4.6 mph - N/A   Clear
5:58 AM 64.0 °F - 61.0 °F 90% 30.06 in 10.0 mi Calm Calm - N/A   Clear
6:58 AM 64.0 °F - 61.0 °F 90% 30.09 in 10.0 mi North 3.5 mph - N/A   Clear
7:58 AM 70.0 °F - 63.0 °F 78% 30.10 in 10.0 mi Calm Calm - N/A   Clear
8:58 AM 77.0 °F - 64.0 °F 64% 30.10 in 10.0 mi NE 3.5 mph - N/A   Clear
10:58 AM 86.0 °F 86.8 °F 63.0 °F 46% 30.08 in 10.0 mi Variable 6.9 mph - N/A   Clear
11:58 AM 88.0 °F 88.4 °F 62.1 °F 42% 30.07 in 10.0 mi ESE 6.9 mph - N/A   Clear
12:58 PM 88.0 °F 88.4 °F 62.1 °F 42% 30.05 in 10.0 mi SSE 4.6 mph - N/A   Clear
1:58 PM 90.0 °F 88.8 °F 57.9 °F 34% 30.03 in 10.0 mi ESE 4.6 mph - N/A   Clear
2:58 PM 91.9 °F 91.5 °F 60.1 °F 34% 30.01 in 10.0 mi NNE 4.6 mph - N/A   Clear
3:58 PM 91.0 °F 90.2 °F 59.0 °F 34% 29.99 in 10.0 mi ESE 5.8 mph - N/A   Clear
4:58 PM 91.0 °F 90.5 °F 60.1 °F 35% 30.00 in 10.0 mi NNE 5.8 mph - N/A   Clear
5:58 PM 91.0 °F 90.2 °F 59.0 °F 34% 30.01 in 10.0 mi North 4.6 mph - N/A   Clear
6:58 PM 84.0 °F 85.8 °F 64.9 °F 53% 30.01 in 10.0 mi Calm Calm - N/A   Clear
7:58 PM 75.9 °F - 68.0 °F 76% 30.02 in 10.0 mi Calm Calm - N/A   Clear
8:58 PM 72.0 °F - 66.9 °F 84% 30.04 in 10.0 mi NW 3.5 mph - N/A   Clear
9:58 PM 70.0 °F - 66.0 °F 87% 30.06 in 10.0 mi Calm Calm - N/A   Clear
10:58 PM 70.0 °F - 64.9 °F 84% 30.06 in 10.0 mi Calm Calm - N/A   Clear
11:58 PM 69.1 °F - 64.9 °F 87% 30.06 in 10.0 mi Calm Calm - N/A   Clear